Meteo pe oră la Ablon-sur-Seine

Astăzi, 29 Iulie, Joi

Timp Temperatura Precipitaţii Vânt Presiune Umiditate
00:00 +18°C° 0 mm 4 m/s 754 mmHg 65%
01:00 +17°C° 0 mm 4 m/s 754 mmHg 71%
02:00 +16°C° 0 mm 3 m/s 754 mmHg 76%
03:00 +14°C° 0 mm 3 m/s 754 mmHg 82%
04:00 +14°C° 0 mm 3 m/s 754 mmHg 81%
05:00 +14°C° 0 mm 3 m/s 754 mmHg 81%
06:00 +14°C° 0 mm 3 m/s 754 mmHg 80%
07:00 +17°C° 0 mm 4 m/s 754 mmHg 71%
08:00 +18°C° 0 mm 4 m/s 755 mmHg 62%
09:00 +20°C° 0 mm 4 m/s 755 mmHg 53%
10:00 +21°C° 0 mm 4 m/s 754 mmHg 48%
11:00 +22°C° 0 mm 4 m/s 754 mmHg 44%
12:00 +23°C° 0 mm 4 m/s 754 mmHg 40%
13:00 +25°C° 0 mm 4 m/s 754 mmHg 39%
14:00 +25°C° 0 mm 4 m/s 753 mmHg 38%
15:00 +26°C° 0 mm 4 m/s 753 mmHg 37%
16:00 +25°C° 0 mm 3 m/s 753 mmHg 40%
17:00 +25°C° 0 mm 3 m/s 753 mmHg 43%
18:00 +24°C° 0 mm 2 m/s 752 mmHg 46%
19:00 +23°C° 0 mm 2 m/s 752 mmHg 50%
20:00 +21°C° 0 mm 1 m/s 752 mmHg 54%
21:00 +20°C° 0 mm 1 m/s 752 mmHg 57%
22:00 +20°C° 0 mm 1 m/s 752 mmHg 59%
23:00 +18°C° 0 mm 2 m/s 751 mmHg 62%

Mâine, 30 Iulie, Vineri

Timp Temperatura Precipitaţii Vânt Presiune Umiditate
00:00 +17°C° 0 mm 2 m/s 751 mmHg 64%
01:00 +17°C° 0 mm 2 m/s 751 mmHg 67%
02:00 +16°C° 0 mm 2 m/s 751 mmHg 70%
03:00 +16°C° 0 mm 2 m/s 751 mmHg 74%
04:00 +16°C° 0 mm 3 m/s 750 mmHg 73%
05:00 +16°C° 0 mm 3 m/s 750 mmHg 73%
06:00 +17°C° 0 mm 3 m/s 750 mmHg 73%
07:00 +18°C° 0 mm 4 m/s 750 mmHg 67%
08:00 +20°C° 0 mm 4 m/s 750 mmHg 62%
09:00 +22°C° 0 mm 5 m/s 750 mmHg 57%
10:00 +21°C° 0.1 mm 5 m/s 750 mmHg 60%
11:00 +21°C° 0.1 mm 6 m/s 750 mmHg 64%
12:00 +21°C° 0.1 mm 6 m/s 750 mmHg 67%
13:00 +22°C° 0 mm 6 m/s 750 mmHg 57%
14:00 +24°C° 0 mm 7 m/s 750 mmHg 47%
15:00 +26°C° 0 mm 7 m/s 750 mmHg 36%
16:00 +24°C° 0 mm 7 m/s 750 mmHg 41%
17:00 +23°C° 0 mm 6 m/s 750 mmHg 46%
18:00 +22°C° 0 mm 6 m/s 750 mmHg 51%
19:00 +21°C° 0 mm 6 m/s 750 mmHg 55%
20:00 +20°C° 0 mm 5 m/s 751 mmHg 59%
21:00 +17°C° 0 mm 5 m/s 751 mmHg 63%
22:00 +17°C° 0 mm 5 m/s 751 mmHg 67%
23:00 +17°C° 0 mm 4 m/s 752 mmHg 71%

Poimâine, 31 Iulie, Sâmbătă

Timp Temperatura Precipitaţii Vânt Presiune Umiditate
00:00 +15°C° 0 mm 4 m/s 752 mmHg 75%
01:00 +14°C° 0 mm 3 m/s 752 mmHg 79%
02:00 +14°C° 0 mm 3 m/s 752 mmHg 82%
03:00 +13°C° 0 mm 3 m/s 752 mmHg 86%
04:00 +13°C° 0 mm 3 m/s 752 mmHg 85%
05:00 +14°C° 0 mm 3 m/s 752 mmHg 84%
06:00 +14°C° 0 mm 3 m/s 752 mmHg 83%
07:00 +17°C° 0 mm 4 m/s 752 mmHg 75%
08:00 +18°C° 0 mm 4 m/s 752 mmHg 67%
09:00 +20°C° 0 mm 4 m/s 752 mmHg 59%
10:00 +21°C° 0 mm 4 m/s 752 mmHg 56%
11:00 +22°C° 0 mm 4 m/s 752 mmHg 53%
12:00 +22°C° 0 mm 4 m/s 752 mmHg 50%
13:00 +22°C° 0 mm 4 m/s 752 mmHg 50%
14:00 +22°C° 0 mm 4 m/s 752 mmHg 50%
15:00 +22°C° 0 mm 4 m/s 752 mmHg 51%
16:00 +22°C° 0.1 mm 3 m/s 751 mmHg 53%
17:00 +21°C° 0.1 mm 3 m/s 751 mmHg 56%
18:00 +21°C° 0.1 mm 2 m/s 751 mmHg 59%
19:00 +20°C° 0.2 mm 2 m/s 751 mmHg 66%
20:00 +18°C° 0.2 mm 2 m/s 752 mmHg 73%
21:00 +17°C° 0.2 mm 2 m/s 752 mmHg 80%
22:00 +16°C° 0.1 mm 2 m/s 752 mmHg 82%
23:00 +16°C° 0.1 mm 1 m/s 752 mmHg 84%

1 August, Duminică

Timp Temperatura Precipitaţii Vânt Presiune Umiditate
00:00 +15°C° 0.1 mm 1 m/s 752 mmHg 86%
01:00 +15°C° 0 mm 1 m/s 752 mmHg 88%
02:00 +15°C° 0 mm 1 m/s 752 mmHg 89%
03:00 +14°C° 0 mm 1 m/s 752 mmHg 90%
04:00 +15°C° 0 mm 1 m/s 752 mmHg 88%
05:00 +15°C° 0 mm 1 m/s 752 mmHg 85%
06:00 +15°C° 0 mm 1 m/s 752 mmHg 83%
07:00 +17°C° 0 mm 2 m/s 752 mmHg 75%
08:00 +19°C° 0 mm 2 m/s 752 mmHg 66%
09:00 +20°C° 0 mm 3 m/s 752 mmHg 58%
10:00 +21°C° 0 mm 3 m/s 752 mmHg 53%
11:00 +22°C° 0 mm 4 m/s 752 mmHg 48%
12:00 +25°C° 0 mm 4 m/s 752 mmHg 43%
13:00 +23°C° 0 mm 4 m/s 752 mmHg 45%
14:00 +23°C° 0 mm 4 m/s 752 mmHg 46%
15:00 +23°C° 0 mm 4 m/s 752 mmHg 48%
16:00 +22°C° 0 mm 3 m/s 752 mmHg 51%
17:00 +23°C° 0 mm 2 m/s 752 mmHg 54%
18:00 +21°C° 0 mm 2 m/s 752 mmHg 56%
19:00 +20°C° 0.1 mm 2 m/s 752 mmHg 63%
20:00 +20°C° 0.1 mm 1 m/s 753 mmHg 69%
21:00 +18°C° 0.1 mm 1 m/s 753 mmHg 75%
22:00 +18°C° 0 mm 1 m/s 753 mmHg 78%
23:00 +16°C° 0 mm 1 m/s 753 mmHg 81%

2 August, Luni

Timp Temperatura Precipitaţii Vânt Presiune Umiditate
00:00 +16°C° 0 mm 1 m/s 753 mmHg 84%
01:00 +15°C° 0 mm 2 m/s 753 mmHg 86%
02:00 +15°C° 0 mm 2 m/s 753 mmHg 87%
03:00 +15°C° 0 mm 2 m/s 753 mmHg 88%
04:00 +15°C° 0 mm 2 m/s 753 mmHg 86%
05:00 +16°C° 0 mm 2 m/s 753 mmHg 84%
06:00 +16°C° 0 mm 2 m/s 754 mmHg 82%
07:00 +17°C° 0 mm 2 m/s 754 mmHg 77%
08:00 +18°C° 0 mm 3 m/s 754 mmHg 72%
09:00 +20°C° 0 mm 3 m/s 754 mmHg 67%
10:00 +20°C° 0.2 mm 3 m/s 754 mmHg 64%
11:00 +21°C° 0.2 mm 3 m/s 754 mmHg 62%
12:00 +22°C° 0.2 mm 3 m/s 754 mmHg 59%
13:00 +22°C° 0.3 mm 3 m/s 754 mmHg 57%
14:00 +24°C° 0.3 mm 3 m/s 754 mmHg 56%
15:00 +24°C° 0.3 mm 3 m/s 753 mmHg 54%
16:00 +24°C° 0.1 mm 2 m/s 753 mmHg 56%
17:00 +23°C° 0.1 mm 2 m/s 753 mmHg 57%
18:00 +23°C° 0.1 mm 2 m/s 753 mmHg 59%
19:00 +21°C° 0.1 mm 2 m/s 753 mmHg 63%
20:00 +21°C° 0.1 mm 1 m/s 754 mmHg 67%
21:00 +20°C° 0.1 mm 1 m/s 754 mmHg 72%
22:00 +19°C° 0 mm 1 m/s 754 mmHg 74%
23:00 +19°C° 0 mm 1 m/s 754 mmHg 75%

3 August, Marţi

Timp Temperatura Precipitaţii Vânt Presiune Umiditate
00:00 +18°C° 0 mm 1 m/s 754 mmHg 77%
01:00 +18°C° 0 mm 1 m/s 754 mmHg 78%
02:00 +18°C° 0 mm 1 m/s 754 mmHg 79%
03:00 +16°C° 0 mm 1 m/s 754 mmHg 79%
04:00 +16°C° 0 mm 1 m/s 754 mmHg 78%
05:00 +16°C° 0 mm 2 m/s 754 mmHg 77%
06:00 +16°C° 0 mm 2 m/s 754 mmHg 76%
07:00 +18°C° 0 mm 2 m/s 755 mmHg 69%
08:00 +19°C° 0 mm 2 m/s 755 mmHg 62%
09:00 +21°C° 0 mm 2 m/s 755 mmHg 55%
10:00 +23°C° 0 mm 2 m/s 754 mmHg 51%
11:00 +24°C° 0 mm 2 m/s 754 mmHg 46%
12:00 +25°C° 0 mm 2 m/s 754 mmHg 41%
13:00 +25°C° 0 mm 2 m/s 754 mmHg 41%
14:00 +25°C° 0 mm 2 m/s 753 mmHg 41%
15:00 +25°C° 0 mm 2 m/s 753 mmHg 41%
16:00 +25°C° 0 mm 2 m/s 753 mmHg 43%
17:00 +24°C° 0 mm 2 m/s 753 mmHg 45%
18:00 +24°C° 0 mm 2 m/s 753 mmHg 47%
19:00 +22°C° 0 mm 3 m/s 754 mmHg 51%
20:00 +21°C° 0 mm 3 m/s 754 mmHg 55%
21:00 +20°C° 0 mm 3 m/s 755 mmHg 59%
22:00 +19°C° 0 mm 3 m/s 755 mmHg 62%
23:00 +18°C° 0 mm 3 m/s 755 mmHg 64%
Arată mai mult

Formular de consimțământ

Meteoprog și furnizorii noștri de servicii pot stoca și accesa date personale, precum cookies, identificatori de dispozitiv sau alte tehnologii similare pe dispozitivul dumneavoastră și procesa astfel de date pentru a personaliza conținutul și reclamele, dar și pentru a oferi caracteristici de social media și pentru a analiza traficul.

  • Stocarea și/sau accesarea informațiilor pe dispozitivul dumneavoastră

    Cookies, identificatori de dispozitiv sau alte informații pot fi stocate sau accesate pe dispozitiv în scopurile indicate mai sus.

  • Reclame și conținut personalizat, evaluarea reclamelor și a conținutului, informații despre audiențe și dezvoltarea produselor

    Reclamele și conținutul pot fi personalizate pe baza unui profil. Pot fi adăugate date suplimentare pentru a personaliza mai bine reclamele și conținutul. Performanța reclamelor și conținutului poate fi măsurată. Pot fi obținute informații despre utilizatorii care au văzut reclamele și conținutul. Aceste date pot fi utilizate pentru a dezvolta sau îmbunătăți experiența utilizatorilor, sistemele și software-ul.

Dând clic pe ‘Sunt de acord’, permiteți utilizarea cookie-urilor menționate, a identificatorilor de dispozitiv, balizelor web sau altor tehnologii similare. Setările pot fi modificate din browser-ul dispozitivului dumneavoastră.

În anumite scopuri, interesele legitime pot prima asupra consimțământului. Puteți citi mai multe informații în acest sens în Politica privind Confidențialitatea Datelor și Cookie.